CAPE
169 399 187 32 10 3 3 4 1 0 0 0 0 0 0 0 0 0 0 0 0 0 0 0 0 0 0 0 0 0 0 0 0 0 0 0 0 0 0 0 0 0 0
373 81 2 2 2 2 4 3 0 0 0 0 0 0 0 0 0 0 0 0 0 0 0 0 0 0 0 0 0 0 0 0 0 0 0 0 0 0 0 0 0 0 0
86 8 4 4 4 5 6 6 0 0 0 0 0 0 0 0 0 0 0 0 0 0 0 0 0 0 0 0 0 0 0 0 0 0 0 0 0 0 0 0 0 0 0
4 4 5 5 6 7 6 4 0 0 0 0 0 0 0 0 0 0 0 0 0 0 0 0 0 0 0 0 0 0 0 0 0 0 0 0 0 0 0 1 0 0 0
4 5 5 5 6 6 4 0 0 0 0 0 0 0 0 0 0 0 0 0 0 0 0 0 0 0 0 0 0 0 0 0 0 0 0 2 2 2 4 2 4 3 0
0 1 2 5 6 5 1 0 0 0 0 0 0 0 0 0 0 0 0 0 0 0 0 0 0 0 0 0 0 0 0 0 1 4 4 3 3 3 2 3 4 4 0
1 0 0 4 6 5 0 0 0 0 0 0 0 0 0 0 0 0 0 0 0 0 0 0 0 0 0 0 0 0 0 0 0 1 3 2 4 3 2 4 5 5 5
1 0 0 4 4 3 0 0 0 0 0 0 0 0 0 0 0 0 0 0 0 0 0 0 0 0 0 0 0 0 0 0 0 0 0 1 1 1 1 2 3 3 2
1 3 1 3 3 0 0 0 0 0 0 0 0 0 0 0 0 0 0 0 0 0 0 0 0 0 0 0 0 0 0 0 0 0 0 0 0 0 1 1 3 2 1
3 3 3 3 1 0 0 0 0 0 0 0 0 0 0 0 0 0 0 0 0 0 0 0 0 0 0 0 0 0 0 0 1 0 0 0 0 0 1 1 2 5 4
2 2 1 0 0 0 0 0 0 0 0 0 0 0 0 0 0 0 0 0 0 0 0 0 0 0 0 0 0 0 0 0 0 1 1 1 0 0 1 1 1 2 3
1 0 0 0 0 0 0 0 0 0 0 0 0 0 0 0 0 0 0 0 0 0 0 0 0 0 0 0 0 0 0 0 0 2 4 4 3 3 1 1 1 0 1
0 0 0 0 0 0 0 0 0 0 0 0 0 0 0 0 0 0 0 0 0 0 0 0 0 0 0 0 0 0 0 0 2 2 4 4 2 1 0 1 1 1 1
0 0 0 0 0 0 0 0 0 0 0 0 0 0 0 0 0 0 0 0 0 0 0 0 0 0 0 0 0 0 0 0 3 4 4 2 1 2 2 1 3 4 4
0 0 0 0 0 0 0 0 0 0 0 0 0 0 0 0 0 0 0 0 0 0 0 0 0 0 0 0 0 0 0 0 1 2 3 3 2 3 3 1 2 4 6
0 0 0 0 0 0 0 0 0 0 0 0 0 0 0 0 0 0 0 0 0 0 0 0 0 0 0 0 0 0 0 0 0 2 2 2 3 3 2 1 1 4 6
0 0 0 0 0 0 0 0 0 0 0 0 0 0 0 0 0 0 0 0 0 0 0 0 0 0 0 0 0 0 0 0 0 0 2 2 2 2 2 2 3 4 5
0 0 0 0 0 0 0 0 0 0 0 0 0 0 0 0 0 0 0 0 0 0 0 0 0 0 0 0 0 0 0 0 0 0 0 1 1 2 2 3 3 4 5
0 0 0 0 0 0 0 0 0 0 0 0 0 0 0 0 0 0 0 0 0 0 0 0 0 0 0 0 0 0 0 0 0 0 0 0 1 1 1 2 3 3 4
0 0 0 0 0 0 0 0 0 0 0 0 0 0 0 0 0 0 0 0 0 0 0 0 0 0 0 0 0 0 0 0 0 0 0 0 0 1 1 1 2 4 5
0 0 0 0 0 0 0 0 0 0 0 0 0 0 0 0 0 0 0 0 0 0 0 0 0 0 0 0 0 0 0 0 0 0 0 0 0 1 1 0 1 2 3
0 0 0 0 0 0 0 0 0 0 0 0 0 0 0 0 0 0 0 0 0 0 0 0 0 0 0 0 0 0 0 0 0 0 0 0 0 0 0 0 1 2 2
0 0 0 0 0 0 0 0 0 0 0 0 0 0 0 0 0 0 0 0 0 0 0 0 0 0 0 0 0 0 0 0 0 0 0 0 0 0 0 0 1 1 2
0 0 0 0 0 0 0 0 0 0 0 0 0 0 0 0 0 0 0 0 0 0 0 0 0 0 0 0 0 0 0 0 0 0 0 0 0 0 0 0 0 1 0
0 0 0 0 0 0 0 0 0 0 0 0 0 0 0 0 0 0 0 0 0 0 0 0 0 0 0 0 0 0 0 0 0 0 0 0 0 0 0 0 0 0 1
0 0 0 0 0 0 0 0 0 0 0 0 0 0 0 0 0 0 0 0 0 0 0 0 0 0 0 0 0 0 0 0 0 0 0 0 0 0 0 0 0 0 0
CIN
-108 -26 -83 -268 -341 -128 -0 -0 -0 -0 -0 -0 -0 -0 -0 -0 -0 -0 -0 -0 -0 -0 -0 -0 -0 -0 -0 -0 -0 -0 -0 -0 -0 -0 -0 -0 -0 -0 -0 -0 -0 -0 -0
-53 -184 -0 -0 -0 -0 -0 -0 -0 -0 -0 -0 -0 -0 -0 -0 -0 -0 -0 -0 -0 -0 -0 -0 -0 -0 -0 -0 -0 -0 -0 -0 -0 -0 -0 -0 -0 -0 -0 -0 -0 -0 -0
-316 -246 -0 -0 -0 -0 -0 -0 -0 -0 -0 -0 -0 -0 -0 -0 -0 -0 -0 -0 -0 -0 -0 -0 -0 -0 -0 -0 -0 -0 -0 -0 -0 -0 -0 -0 -0 -0 -0 -0 -0 -0 -0
-0 -0 -0 -0 -0 -0 -0 -0 -0 -0 -0 -0 -0 -0 -0 -0 -0 -0 -0 -0 -0 -0 -0 -0 -0 -0 -0 -0 -0 -0 -0 -0 -0 -0 -0 -0 -0 -0 -0 -0 -0 -0 -0
-0 -0 -0 -0 -0 -0 -0 -0 -0 -0 -0 -0 -0 -0 -0 -0 -0 -0 -0 -0 -0 -0 -0 -0 -0 -0 -0 -0 -0 -0 -0 -0 -0 -0 -0 -0 -0 -0 -0 -0 -0 -0 -0
-0 -0 -0 -0 -0 -0 -0 -0 -0 -0 -0 -0 -0 -0 -0 -0 -0 -0 -0 -0 -0 -0 -0 -0 -0 -0 -0 -0 -0 -0 -0 -0 -0 -0 -0 -0 -0 -0 -0 -0 -0 -0 -0
-0 -0 -0 -0 -0 -0 -0 -0 -0 -0 -0 -0 -0 -0 -0 -0 -0 -0 -0 -0 -0 -0 -0 -0 -0 -0 -0 -0 -0 -0 -0 -0 -0 -0 -0 -0 -0 -0 -0 -0 -0 -0 -0
-0 -0 -0 -0 -0 -0 -0 -0 -0 -0 -0 -0 -0 -0 -0 -0 -0 -0 -0 -0 -0 -0 -0 -0 -0 -0 -0 -0 -0 -0 -0 -0 -0 -0 -0 -0 -0 -0 -0 -0 -0 -0 -0
-0 -0 -0 -0 -0 -0 -0 -0 -0 -0 -0 -0 -0 -0 -0 -0 -0 -0 -0 -0 -0 -0 -0 -0 -0 -0 -0 -0 -0 -0 -0 -0 -0 -0 -0 -0 -0 -0 -0 -0 -0 -0 -0
-0 -0 -0 -0 -0 -0 -0 -0 -0 -0 -0 -0 -0 -0 -0 -0 -0 -0 -0 -0 -0 -0 -0 -0 -0 -0 -0 -0 -0 -0 -0 -0 -0 -0 -0 -0 -0 -0 -0 -0 -0 -0 -0
-0 -0 -0 -0 -0 -0 -0 -0 -0 -0 -0 -0 -0 -0 -0 -0 -0 -0 -0 -0 -0 -0 -0 -0 -0 -0 -0 -0 -0 -0 -0 -0 -0 -0 -0 -0 -0 -0 -0 -0 -0 -0 -0
-0 -0 -0 -0 -0 -0 -0 -0 -0 -0 -0 -0 -0 -0 -0 -0 -0 -0 -0 -0 -0 -0 -0 -0 -0 -0 -0 -0 -0 -0 -0 -0 -0 -0 -0 -0 -0 -0 -0 -0 -0 -0 -0
-0 -0 -0 -0 -0 -0 -0 -0 -0 -0 -0 -0 -0 -0 -0 -0 -0 -0 -0 -0 -0 -0 -0 -0 -0 -0 -0 -0 -0 -0 -0 -0 -0 -0 -0 -0 -0 -0 -0 -0 -0 -0 -0
-0 -0 -0 -0 -0 -0 -0 -0 -0 -0 -0 -0 -0 -0 -0 -0 -0 -0 -0 -0 -0 -0 -0 -0 -0 -0 -0 -0 -0 -0 -0 -0 -0 -0 -0 -0 -0 -0 -0 -0 -0 -0 -0
-0 -0 -0 -0 -0 -0 -0 -0 -0 -0 -0 -0 -0 -0 -0 -0 -0 -0 -0 -0 -0 -0 -0 -0 -0 -0 -0 -0 -0 -0 -0 -0 -0 -0 -0 -0 -0 -0 -0 -0 -0 -0 -0
-0 -0 -0 -0 -0 -0 -0 -0 -0 -0 -0 -0 -0 -0 -0 -0 -0 -0 -0 -0 -0 -0 -0 -0 -0 -0 -0 -0 -0 -0 -0 -0 -0 -0 -0 -0 -0 -0 -0 -0 -0 -0 -0
-0 -0 -0 -0 -0 -0 -0 -0 -0 -0 -0 -0 -0 -0 -0 -0 -0 -0 -0 -0 -0 -0 -0 -0 -0 -0 -0 -0 -0 -0 -0 -0 -0 -0 -0 -0 -0 -0 -0 -0 -0 -0 -0
-0 -0 -0 -0 -0 -0 -0 -0 -0 -0 -0 -0 -0 -0 -0 -0 -0 -0 -0 -0 -0 -0 -0 -0 -0 -0 -0 -0 -0 -0 -0 -0 -0 -0 -0 -0 -0 -0 -0 -0 -0 -0 -0
-0 -0 -0 -0 -0 -0 -0 -0 -0 -0 -0 -0 -0 -0 -0 -0 -0 -0 -0 -0 -0 -0 -0 -0 -0 -0 -0 -0 -0 -0 -0 -0 -0 -0 -0 -0 -0 -0 -0 -0 -0 -0 -0
-0 -0 -0 -0 -0 -0 -0 -0 -0 -0 -0 -0 -0 -0 -0 -0 -0 -0 -0 -0 -0 -0 -0 -0 -0 -0 -0 -0 -0 -0 -0 -0 -0 -0 -0 -0 -0 -0 -0 -0 -0 -0 -0
-0 -0 -0 -0 -0 -0 -0 -0 -0 -0 -0 -0 -0 -0 -0 -0 -0 -0 -0 -0 -0 -0 -0 -0 -0 -0 -0 -0 -0 -0 -0 -0 -0 -0 -0 -0 -0 -0 -0 -0 -0 -0 -0
-0 -0 -0 -0 -0 -0 -0 -0 -0 -0 -0 -0 -0 -0 -0 -0 -0 -0 -0 -0 -0 -0 -0 -0 -0 -0 -0 -0 -0 -0 -0 -0 -0 -0 -0 -0 -0 -0 -0 -0 -0 -0 -0
-0 -0 -0 -0 -0 -0 -0 -0 -0 -0 -0 -0 -0 -0 -0 -0 -0 -0 -0 -0 -0 -0 -0 -0 -0 -0 -0 -0 -0 -0 -0 -0 -0 -0 -0 -0 -0 -0 -0 -0 -0 -0 -0
-0 -0 -0 -0 -0 -0 -0 -0 -0 -0 -0 -0 -0 -0 -0 -0 -0 -0 -0 -0 -0 -0 -0 -0 -0 -0 -0 -0 -0 -0 -0 -0 -0 -0 -0 -0 -0 -0 -0 -0 -0 -0 -0
-0 -0 -0 -0 -0 -0 -0 -0 -0 -0 -0 -0 -0 -0 -0 -0 -0 -0 -0 -0 -0 -0 -0 -0 -0 -0 -0 -0 -0 -0 -0 -0 -0 -0 -0 -0 -0 -0 -0 -0 -0 -0 -0
-0 -0 -0 -0 -0 -0 -0 -0 -0 -0 -0 -0 -0 -0 -0 -0 -0 -0 -0 -0 -0 -0 -0 -0 -0 -0 -0 -0 -0 -0 -0 -0 -0 -0 -0 -0 -0 -0 -0 -0 -0 -0 -0
Wind_Speed
16 20 20 17 14 12 10 7 3 2 2 3 6 8 10 13 15 18 20 22 23 24 25 26 27 29 31 30 29 29 29 29 30 32 31 33 33 36 36 36 36 37 37
18 16 18 16 13 11 9 6 4 3 1 4 7 9 11 14 16 18 21 21 22 24 25 27 29 29 30 29 30 31 31 32 31 35 31 32 33 37 37 38 38 37 38
21 17 16 17 13 11 7 6 5 2 5 4 7 9 12 14 16 18 19 21 22 24 25 28 30 30 32 32 32 34 34 33 32 31 31 32 33 36 39 37 37 38 35
20 18 18 16 13 11 8 7 5 2 4 5 8 11 13 14 17 18 20 21 22 23 25 28 30 32 33 34 34 34 34 35 34 33 33 34 34 36 35 37 40 35 34
15 18 17 13 13 11 10 7 5 2 2 6 10 12 13 16 17 18 20 21 22 23 26 28 30 32 34 34 33 34 36 36 35 35 36 35 35 37 38 35 34 35 35
10 9 11 13 14 13 10 5 6 8 6 9 11 13 15 16 17 18 19 20 22 25 27 29 30 32 34 36 35 34 35 35 35 35 34 35 33 33 34 33 35 37 38
8 4 1 4 12 11 8 9 4 5 9 10 14 16 18 18 17 17 19 21 23 25 28 29 30 31 34 35 36 36 34 34 32 33 34 33 31 33 32 31 33 32 31
7 13 13 11 10 9 6 4 5 9 12 13 15 17 18 19 18 18 18 21 23 25 28 28 29 31 35 36 37 37 36 35 33 34 32 30 30 31 29 26 28 28 26
10 10 13 14 15 12 8 12 12 12 13 14 17 18 19 20 20 19 19 21 23 26 27 28 28 31 35 37 38 39 38 36 35 35 33 33 33 32 30 29 31 33 32
15 19 19 18 14 16 19 14 13 14 13 16 19 20 21 21 21 20 20 22 25 25 28 28 30 32 35 39 38 39 39 39 37 36 35 35 35 34 32 29 29 29 28
15 14 13 13 14 14 17 15 15 15 16 18 19 20 21 21 21 21 22 24 25 27 29 29 32 34 36 38 38 39 38 37 37 36 36 36 37 36 34 31 28 24 24
13 13 11 13 13 14 16 15 14 14 16 17 18 19 20 21 21 22 24 25 26 28 29 31 33 34 35 37 37 39 40 38 37 38 38 39 39 39 37 34 31 26 17
12 10 10 10 13 15 16 13 14 15 16 17 18 18 20 21 21 23 25 26 27 29 30 32 33 33 34 36 39 41 41 41 40 40 40 38 37 36 36 37 33 32 25
13 11 13 13 13 12 13 15 16 17 17 18 18 19 20 21 22 24 24 26 28 31 32 32 32 33 35 35 38 40 41 42 42 42 39 35 36 37 37 38 37 37 34
12 11 10 10 12 13 13 14 16 15 17 18 17 18 20 21 22 23 24 27 30 31 31 32 33 34 36 37 39 41 42 43 43 41 40 38 35 37 38 37 36 37 35
14 11 11 12 12 13 14 14 12 16 16 17 18 20 21 21 23 24 26 30 30 31 31 32 34 34 36 38 40 42 42 43 41 40 40 41 30 25 33 34 34 33 22
12 11 10 11 12 14 13 14 15 14 16 17 19 20 22 22 23 25 28 29 31 30 32 33 33 36 37 38 40 41 41 39 37 39 41 40 27 32 22 29 30 27 22
8 9 10 11 12 12 13 14 15 15 16 18 19 20 22 22 23 25 26 27 29 31 32 33 35 36 37 38 39 39 39 38 39 40 41 43 36 24 19 24 23 23 20
9 10 11 11 10 11 15 15 14 14 16 18 18 20 21 23 24 25 26 27 29 30 32 34 34 36 37 37 38 37 37 38 37 39 40 43 36 23 16 14 16 13 15
9 11 12 13 13 12 14 13 13 13 15 17 18 17 20 21 23 24 25 27 28 31 32 33 34 35 37 37 37 36 37 39 40 40 42 37 29 22 18 12 15 16 15
9 11 13 14 15 14 12 11 12 13 14 16 16 18 19 20 22 22 24 27 29 31 31 32 34 35 35 36 36 36 36 38 39 40 42 33 28 24 21 13 13 12 10
8 12 14 11 10 10 11 12 13 14 14 16 17 18 19 20 20 22 24 27 28 29 31 32 33 34 34 35 36 36 36 37 39 40 39 31 29 27 24 23 19 18 15
9 12 10 10 8 9 12 12 13 14 14 15 16 17 17 18 20 22 24 25 27 30 31 32 33 34 34 34 35 35 34 36 36 36 38 32 30 29 27 27 23 20 22
6 5 8 6 7 10 12 13 14 14 15 15 16 16 18 18 19 20 22 24 28 30 31 31 32 33 34 35 35 36 35 35 36 36 36 33 30 29 28 28 27 23 22
5 6 8 10 11 13 12 12 12 13 14 14 15 18 18 18 19 19 22 24 27 29 31 31 31 32 33 35 36 37 36 35 35 35 35 34 31 30 28 27 26 26 25
5 6 8 9 11 10 11 12 12 13 13 14 16 17 18 18 18 19 20 24 26 28 29 30 31 32 33 34 35 36 35 34 34 33 33 34 32 30 29 27 26 26 27
Wind_Direction
208 218 209 202 194 192 201 211 205 214 280 338 344 8 2 2 4 4 5 4 9 13 14 14 11 6 2 3 6 6 4 3 358 356 356 357 358 355 355 355 354 351 348
217 202 202 198 190 188 190 183 199 184 331 323 26 10 3 6 7 9 8 14 16 14 14 9 5 5 6 8 7 4 2 1 359 354 358 359 358 356 355 353 353 353 350
228 216 214 205 193 188 189 173 175 194 282 350 9 11 10 8 12 17 22 20 21 20 14 10 9 10 7 5 4 1 2 2 2 360 359 359 358 358 355 357 357 355 359
235 229 217 209 187 187 186 186 168 192 81 48 26 18 14 17 20 25 25 24 25 24 21 17 15 10 6 4 4 4 3 2 3 2 2 0 1 1 2 1 358 4 2
240 239 221 209 182 185 174 162 157 141 48 52 40 27 23 23 25 29 29 29 28 25 21 19 15 11 6 6 7 4 3 3 5 5 3 3 3 2 3 4 4 3 5
228 249 221 204 199 164 165 167 128 88 63 41 33 30 30 28 33 32 34 30 27 23 21 17 15 11 7 7 8 7 5 5 5 6 6 3 4 5 5 7 5 5 6
188 180 19 173 161 151 150 101 104 58 50 38 37 30 24 28 38 38 37 31 26 23 18 15 15 14 11 10 7 7 9 8 8 7 5 5 6 5 6 7 6 8 9
161 136 108 155 120 144 137 113 59 57 45 37 31 27 26 32 38 40 41 32 28 24 20 20 20 17 12 8 5 6 6 6 7 6 7 6 4 4 7 10 8 10 14
171 126 139 130 114 115 110 89 80 50 37 28 30 33 35 31 35 43 43 35 27 21 21 22 22 17 11 8 5 3 4 6 8 7 7 6 5 6 8 9 10 10 12
130 123 116 121 128 108 102 88 66 52 42 37 39 37 35 34 36 41 34 30 22 21 20 21 20 16 10 6 7 6 5 4 4 4 5 5 3 5 7 11 9 8 11
123 131 126 113 103 95 88 76 69 60 52 44 44 38 35 33 32 33 32 28 25 22 20 22 19 14 11 9 9 7 7 6 5 4 2 3 2 2 5 8 9 11 11
133 126 116 98 92 88 85 78 66 50 45 47 44 39 32 34 33 33 33 30 28 26 27 23 19 14 12 11 11 8 8 8 6 3 0 359 358 359 0 2 5 11 15
130 123 110 99 88 88 88 75 61 50 51 53 49 47 46 39 35 37 33 33 31 31 27 21 18 17 16 14 11 8 9 8 5 2 359 360 0 358 358 358 6 5 19
108 104 94 89 86 81 74 72 67 60 59 61 60 59 47 41 38 34 36 35 31 24 22 22 21 19 18 18 16 14 11 8 6 3 2 2 359 355 355 352 1 354 9
101 94 91 87 82 78 64 68 69 52 68 72 63 52 46 41 40 44 40 31 24 26 25 23 21 21 20 18 17 14 12 12 11 12 10 7 5 353 348 350 353 352 359
100 96 91 86 80 79 79 69 42 63 59 53 53 50 44 53 53 43 33 26 25 25 27 25 23 23 20 18 16 14 15 15 17 16 16 6 324 315 329 337 341 337 318
100 96 90 86 85 85 80 82 79 53 46 42 48 56 53 54 46 36 31 27 27 30 28 27 26 22 20 19 17 17 18 21 22 19 17 355 326 331 317 329 331 328 323
98 96 94 91 90 87 89 88 82 77 64 53 46 51 47 45 40 34 32 30 29 30 31 29 25 22 21 19 19 20 21 22 20 18 15 355 338 322 320 325 323 324 324
100 98 97 94 88 85 89 88 83 73 63 56 53 41 43 39 35 34 33 35 35 33 30 26 24 23 21 21 21 24 24 22 23 20 19 353 338 325 322 324 324 328 328
96 96 95 93 91 91 92 89 77 63 59 55 53 53 43 39 35 35 38 38 36 32 28 26 25 23 22 23 24 25 25 21 17 18 15 343 334 327 324 334 327 327 333
99 97 94 95 96 95 85 73 64 58 60 64 60 54 51 44 43 46 43 38 32 29 29 27 24 23 24 25 26 25 24 20 16 18 8 340 335 332 329 329 327 333 340
106 100 98 94 90 83 76 77 69 71 68 62 55 50 50 48 51 49 41 35 32 30 28 26 24 25 25 25 23 24 23 18 13 15 354 339 337 337 335 334 333 332 334
109 106 101 97 83 76 82 73 73 73 63 59 56 53 52 52 46 45 39 35 32 26 24 23 23 23 24 23 22 20 20 16 16 19 8 341 340 341 340 341 338 337 340
118 118 104 90 79 78 81 81 78 72 63 57 51 50 47 49 47 46 41 35 27 24 23 23 24 23 21 19 17 14 14 13 12 7 15 348 343 343 344 345 346 342 342
126 111 103 98 96 94 82 77 74 70 62 57 51 44 45 49 46 44 36 29 25 22 21 23 23 21 18 12 9 4 360 358 2 359 1 360 348 348 346 344 345 347 348
127 112 104 101 96 86 81 80 73 67 63 55 50 47 45 46 44 41 33 27 23 22 22 22 21 19 13 10 7 3 360 356 356 355 359 3 355 352 350 348 346 348 352